{"data":{"norad_id":53780,"intl_designator":"2022-111H","name":"STARLINK-4678","alt_names":[],"object_type":"PAYLOAD","status":"ACTIVE","operator":null,"country":"US","launch_date":"2022-09-11","launch_site_code":"AFETR","launch_vehicle":null,"mission":null,"orbit_class":"UNKNOWN","rcs_meters":null,"size_class":null,"mass_kg":null,"dimensions":null,"purposes":["comms"],"wikipedia_slug":null,"has_3d_model":false,"image_url":null,"decayed_at":null,"tle_current":{"epoch":"2026-09-20T04:34:39.667296Z","epoch_age_seconds":110789,"freshness":"FRESH","line1":"1 53780U 22111H   26263.19073689 -.00000659  00000+0 -83661-5 0  9992","line2":"2 53780  53.1608 115.1007 0001288  85.2255 274.8894 15.34391328223131","mean_motion":15.34391328,"eccentricity":0.0001288,"inclination_deg":53.1608,"raan_deg":115.1007,"arg_perigee_deg":85.2255,"mean_anomaly_deg":274.8894,"bstar":-8.3661e-6,"rev_number":22313,"period_min":93.848288485635,"perigee_km":461.84791179727,"apogee_km":463.61011888282,"semimajor_km":6840.86601534,"source":"CELESTRAK","updated_at":"2026-09-21T09:00:32.992571Z"}}}